Date,TemperatureHighF,TemperatureAvgF,TemperatureLowF,DewpointHighF,DewpointAvgF,DewpointLowF,HumidityHigh,HumidityAvg,HumidityLow,PressureMaxIn,PressureMinIn,WindSpeedMaxMPH,WindSpeedAvgMPH,GustSpeedMaxMPH,PrecipitationSumIn
2013-9-1,83.1,66.3,54.3,59.5,56.4,53.8,99,74,39,0.00,0.00,6,2,15,0.00
2013-9-2,81.9,67.9,54.7,61.9,58.5,53.5,96,74,45,0.00,0.00,8,2,19,0.00
2013-9-3,81.0,66.2,51.0,57.3,54.4,49.3,97,70,35,0.00,0.00,7,2,14,0.00
2013-9-4,83.5,66.8,51.0,58.3,54.8,49.8,97,69,41,0.00,0.00,5,2,13,0.00
2013-9-5,85.1,68.5,50.9,56.4,53.0,49.4,95,62,33,0.00,0.00,5,2,12,0.00
2013-9-6,92.8,71.1,51.3,55.5,49.6,44.1,92,53,19,0.00,0.00,6,2,13,0.00
2013-9-7,95.2,72.3,52.2,53.5,48.2,37.3,86,51,14,0.00,0.00,6,2,16,0.00
2013-9-8,92.2,67.6,50.4,59.8,53.5,48.8,98,66,26,0.00,0.00,5,2,10,0.00
2013-9-9,96.9,67.1,49.6,61.7,53.2,47.7,94,67,22,0.00,0.00,6,2,12,0.00
2013-9-10,69.3,61.2,54.4,60.4,57.2,52.8,98,87,69,0.00,0.00,8,2,18,0.00
2013-9-11,68.3,63.6,61.0,61.0,59.9,58.8,99,88,73,0.00,0.00,4,2,9,0.00
2013-9-12,80.5,65.6,57.1,62.9,58.9,55.5,97,81,54,0.00,0.00,6,2,11,0.01
2013-9-13,82.7,64.0,54.3,59.4,56.2,52.2,100,79,44,0.00,0.00,6,2,11,0.00
2013-9-14,81.1,62.1,52.2,59.4,55.1,50.5,100,81,48,0.00,0.00,5,2,12,0.00
2013-9-15,80.0,62.6,49.9,58.5,55.0,48.8,100,79,46,0.00,0.00,7,2,16,0.00
2013-9-16,86.8,65.8,52.6,59.0,55.2,50.9,100,74,34,0.00,0.00,5,2,12,0.00
2013-9-17,81.7,66.0,49.4,52.9,49.4,47.0,96,60,31,0.00,0.00,8,4,20,0.00
2013-9-18,83.6,66.6,50.9,50.1,46.4,36.8,86,54,20,0.00,0.00,7,2,16,0.00
2013-9-19,89.4,67.4,46.7,50.6,44.4,22.1,91,54,9,0.00,0.00,6,2,12,0.00
2013-9-20,76.8,59.3,44.4,61.7,51.6,42.4,96,78,51,0.00,0.00,8,3,20,0.00
2013-9-21,69.3,62.2,55.5,60.9,56.2,50.9,99,82,56,0.00,0.00,6,3,17,0.00
2013-9-22,75.8,61.3,46.6,54.2,51.2,46.4,99,73,42,0.00,0.00,5,2,15,0.00
2013-9-23,82.8,65.9,50.1,59.7,54.8,48.9,97,71,40,0.00,0.00,6,2,13,0.00
2013-9-24,80.2,66.1,57.1,56.9,50.2,45.6,93,60,30,0.00,0.00,9,4,19,0.00
2013-9-25,73.4,61.6,49.0,47.0,43.4,38.9,88,54,29,0.00,0.00,8,4,21,0.00
2013-9-26,77.5,62.9,43.9,43.4,38.8,30.0,84,45,18,0.00,0.00,6,3,15,0.00
2013-9-27,80.3,61.2,45.1,44.4,39.4,29.2,86,53,15,0.00,0.00,6,2,15,0.00
2013-9-28,80.7,61.6,44.4,54.9,43.6,29.4,89,60,15,0.00,0.00,6,2,14,0.00
2013-9-29,68.5,60.8,54.3,63.0,58.3,52.1,99,91,78,0.00,0.00,4,2,8,0.00
2013-9-30,72.0,63.6,53.7,65.1,61.0,50.3,99,92,75,0.00,0.00,5,2,10,0.00